Weather History for Shemya, AK

Change the Weather History Date:

Thursday, February 13, 2014

  Actual Average Record
Temperature  
Mean Temperature 37 °F -  
Max Temperature 41 °F 32 °F 41 °F (1997)
Min Temperature 33 °F 28 °F 10 °F (1997)
Degree Days  
Heating Degree Days 28    
Moisture  
Dew Point 34 °F    
Average Humidity 91    
Maximum Humidity 100    
Minimum Humidity 75    
Precipitation  
Precipitation 0.00 in - - ()
Sea Level Pressure  
Sea Level Pressure 30.07 in    
Wind  
Wind Speed 15 mph (South)    
Max Wind Speed 25 mph    
Max Gust Speed 26 mph    
Visibility 6 miles    
Events Fog , Rain , Snow    
Averages and records for this station are not official NWS values.
T = Trace of Precipitation, MM = Missing Value Source: NWS Daily Summary

Daily Weather History Graph

Daily Weather History Graph

Search for Another Location

Airport:

Trip Planner

Search our weather history database for the weather conditions in past years. The results will help you decide how hot, cold, wet, or windy it might be!

Date:

Astronomy

Feb. 12, 2014 Rise Set
Actual Time 9:45 AM HAST 7:30 PM HAST
Civil Twilight 9:09 AM HAST 8:06 PM HAST
Nautical Twilight 8:29 AM HAST 8:47 PM HAST
Astronomical Twilight 7:49 AM HAST 9:26 PM HAST
Moon 6:57 PM HAST (2/13) 8:46 AM HAST (2/13)
Length of Visible Light 10h 57m
Length of Day
9h 45m
Waxing Gibbous, 99% of the Moon is Illuminated
Feb 13
Waxing Gibbous
Feb 14
Full
Feb 22
Last Quarter
Feb 28
New
Mar 8
First Quarter

Hourly Weather History & Observations

Time (HAST) Temp. Windchill Dew Point Humidity Pressure Visibility Wind Dir Wind Speed Gust Speed Precip Events Conditions
12:03 AM 33.8 °F 23.5 °F 28.4 °F 81% 30.30 in 10.0 mi NNW 16.1 mph - N/A   Mostly Cloudy
12:27 AM 33.8 °F 23.2 °F 28.4 °F 81% 30.30 in 10.0 mi NNW 17.3 mph - N/A   Mostly Cloudy
12:46 AM 33.8 °F 23.2 °F 28.4 °F 81% 30.30 in 10.0 mi NNW 17.3 mph - N/A   Mostly Cloudy
12:54 AM 33.8 °F 23.9 °F 28.4 °F 81% 30.29 in 10.0 mi NNW 15.0 mph - N/A   Overcast
12:56 AM 34.0 °F 24.6 °F 28.9 °F 82% 30.30 in 10.0 mi NNW 13.8 mph - N/A   Overcast
1:06 AM 33.8 °F 23.5 °F 28.4 °F 81% 30.29 in 10.0 mi NNW 16.1 mph - N/A   Overcast
1:21 AM 33.8 °F 24.8 °F 28.4 °F 81% 30.30 in 10.0 mi NW 12.7 mph - N/A   Overcast
1:35 AM 33.8 °F 24.3 °F 28.4 °F 81% 30.29 in 10.0 mi NNW 13.8 mph - N/A   Overcast
1:56 AM 34.0 °F 23.8 °F 28.9 °F 82% 30.30 in 10.0 mi NNW 16.1 mph - N/A   Overcast
2:17 AM 33.8 °F 24.8 °F 28.4 °F 81% 30.29 in 10.0 mi NNW 12.7 mph - N/A   Overcast
2:38 AM 33.8 °F 25.8 °F 28.4 °F 81% 30.30 in 10.0 mi NW 10.4 mph - N/A   Overcast
2:56 AM 34.0 °F 25.5 °F 28.9 °F 82% 30.31 in 10.0 mi NW 11.5 mph - N/A   Overcast
3:56 AM 34.0 °F 26.0 °F 28.9 °F 82% 30.29 in 10.0 mi NNW 10.4 mph - N/A   Overcast
4:37 AM 33.8 °F 27.0 °F 28.4 °F 81% 30.26 in 10.0 mi North 8.1 mph - N/A   Overcast
4:56 AM 34.0 °F 26.6 °F 28.9 °F 82% 30.27 in 10.0 mi North 9.2 mph - N/A   Overcast
5:56 AM 34.0 °F - 28.9 °F 82% 30.26 in 10.0 mi Calm Calm - N/A   Scattered Clouds
6:56 AM 34.0 °F - 28.9 °F 82% 30.27 in 10.0 mi Calm Calm - N/A   Overcast
7:56 AM 34.0 °F - 30.0 °F 85% 30.26 in 10.0 mi Calm Calm - N/A   Overcast
8:56 AM 35.1 °F 32.2 °F 30.0 °F 82% 30.25 in 10.0 mi SSE 3.5 mph - N/A   Overcast
9:56 AM 35.1 °F 29.3 °F 30.0 °F 82% 30.24 in 10.0 mi SE 6.9 mph - N/A   Overcast
10:39 AM 35.6 °F 28.6 °F 30.2 °F 81% 30.23 in 10.0 mi SSE 9.2 mph - N/A   Overcast
10:56 AM 35.1 °F 26.4 °F 30.0 °F 82% 30.23 in 10.0 mi SSE 12.7 mph - N/A   Overcast
11:37 AM 35.6 °F 26.2 °F 32.0 °F 87% 30.20 in 10.0 mi SSE 15.0 mph - N/A   Overcast
11:56 AM 36.0 °F 26.3 °F 30.9 °F 82% 30.20 in 10.0 mi SSE 16.1 mph - N/A   Overcast
12:32 PM 35.6 °F 25.5 °F 32.0 °F 87% 30.18 in 10.0 mi SSE 17.3 mph - N/A   Overcast
12:54 PM 35.6 °F 25.2 °F 33.8 °F 93% 30.17 in 10.0 mi SSE 18.4 mph - N/A   Overcast
12:56 PM 36.0 °F 25.6 °F 33.1 °F 89% 30.17 in 10.0 mi SSE 18.4 mph - N/A   Overcast
1:19 PM 35.6 °F 25.2 °F 33.8 °F 93% 30.16 in 10.0 mi SSE 18.4 mph - N/A   Overcast
1:56 PM 36.0 °F 25.3 °F 34.0 °F 93% 30.15 in 10.0 mi SSE 19.6 mph - N/A   Overcast
2:26 PM - - - N/A% 30.12 in 4.0 mi SSE 18.4 mph - N/A   Overcast
2:46 PM 35.6 °F 24.8 °F 35.6 °F 100% 30.10 in - SSE 19.6 mph - N/A   Overcast
2:56 PM 35.6 °F 25.2 °F 35.1 °F 98% 30.11 in 5.0 mi SSE 18.4 mph - N/A   Overcast
3:56 PM 35.6 °F 24.5 °F 35.1 °F 98% 30.06 in 4.0 mi South 20.7 mph - N/A Snow Light Snow
4:23 PM - - - N/A% 30.02 in 2.5 mi SSE 24.2 mph - N/A   Unknown
4:31 PM - - - N/A% 30.01 in 4.0 mi SSE 24.2 mph - N/A   Haze
4:56 PM - - - N/A% 30.00 in 4.0 mi SSE 25.3 mph - N/A   Haze
5:13 PM - - - N/A% 29.99 in 2.5 mi SSE 24.2 mph - N/A   Unknown
5:18 PM - - - N/A% 29.99 in - SSE 21.9 mph - N/A   Unknown
5:28 PM - - - N/A% 29.99 in 2.5 mi SSE 21.9 mph - N/A   Unknown
5:56 PM 37.9 °F 27.9 °F 37.9 °F 100% 29.97 in 2.5 mi SSE 19.6 mph - N/A Snow Light Snow
6:07 PM 37.4 °F 27.2 °F 37.4 °F 100% 29.96 in 1.5 mi SSE 19.6 mph - N/A Rain Light Rain
6:21 PM 37.4 °F 27.8 °F 37.4 °F 100% 29.95 in 1.5 mi SSE 17.3 mph - N/A Rain Light Rain
6:25 PM 37.4 °F 27.8 °F 37.4 °F 100% 29.95 in - South 17.3 mph - N/A Rain Light Rain
6:46 PM 39.2 °F 31.2 °F 39.2 °F 100% 29.93 in - South 13.8 mph - N/A   Overcast
6:56 PM 39.0 °F 29.9 °F 39.0 °F 100% 29.92 in 2.0 mi South 17.3 mph - N/A   Overcast
7:00 PM 39.2 °F 30.2 °F 39.2 °F 100% 29.91 in 1.5 mi South 17.3 mph - N/A   Overcast
7:04 PM 39.2 °F 30.2 °F 39.2 °F 100% 29.91 in 1.0 mi South 17.3 mph - N/A Rain Light Rain
7:12 PM 39.2 °F 29.8 °F 39.2 °F 100% 29.91 in 0.8 mi South 18.4 mph - N/A Rain Light Rain
7:28 PM 39.2 °F 29.8 °F 39.2 °F 100% 29.89 in 0.5 mi South 18.4 mph - N/A Fog Fog
7:39 PM 39.2 °F 30.8 °F 39.2 °F 100% 29.89 in 1.0 mi South 15.0 mph - N/A   Mist
7:56 PM 39.9 °F 30.5 °F 39.0 °F 97% 29.88 in 0.8 mi South 19.6 mph - N/A   Mist
8:33 PM 39.2 °F 30.5 °F 39.2 °F 100% 29.85 in 1.2 mi South 16.1 mph - N/A   Overcast
8:38 PM 39.2 °F 29.8 °F 39.2 °F 100% 29.84 in 1.8 mi South 18.4 mph - N/A   Overcast
8:43 PM 39.2 °F 30.2 °F 39.2 °F 100% 29.83 in 1.2 mi South 17.3 mph - N/A   Overcast
8:52 PM 39.2 °F 30.5 °F 39.2 °F 100% 29.82 in 1.0 mi South 16.1 mph - N/A   Mist
8:56 PM 39.9 °F 30.5 °F 39.0 °F 97% 29.82 in 1.0 mi South 19.6 mph - N/A   Mist
9:04 PM 39.2 °F 28.7 °F 39.2 °F 100% 29.81 in 0.8 mi South 23.0 mph 26.5 mph N/A   Mist
9:14 PM 39.2 °F 29.8 °F 39.2 °F 100% 29.80 in 1.0 mi South 18.4 mph - N/A   Mist
9:20 PM 39.2 °F 29.3 °F 39.2 °F 100% 29.80 in 1.5 mi South 20.7 mph - N/A   Overcast
9:24 PM 39.2 °F 29.3 °F 39.2 °F 100% 29.80 in - South 20.7 mph - N/A   Overcast
9:35 PM 39.2 °F 28.5 °F 39.2 °F 100% 29.79 in 5.0 mi South 24.2 mph - N/A   Overcast
9:56 PM 41.0 °F 30.9 °F 39.9 °F 96% 29.78 in 3.0 mi South 24.2 mph - N/A   Overcast
10:29 PM 39.2 °F 29.0 °F 39.2 °F 100% 29.76 in 5.0 mi South 21.9 mph - N/A Rain Light Rain
10:56 PM 39.9 °F 30.0 °F 39.9 °F 100% 29.75 in 6.0 mi SSW 21.9 mph - N/A   Overcast
11:56 PM 39.9 °F 30.8 °F 39.0 °F 97% 29.73 in 4.0 mi SW 18.4 mph - N/A   Overcast